Location: Martz Observatory
(42.0083°N, 79.0667°W)
Time: 01:18:46
(UTC-04:00)

Meteor 2-8 Rocket - Pass Details

Date: 26 May 2018
Orbit: 936 x 958 km, 82.5° (Epoch: 21 August)

Event Time Altitude Azimuth Distance (km) Brightness Sun altitude
Exits shadow 04:43:57 - 189° (S) 3,227 6.8 -10.3°
Reaches altitude 10° 04:45:26 10° 189° (S) 2,668 6.3 -10.1°
Maximum altitude 04:51:33 83° 277° (W) 967 4.5 -9.2°
Drops below altitude 10° 04:57:45 10° 7° (N) 2,697 7.5 -8.3°
Sets 05:00:16 0° 8° (N) 3,649 8.3 -8.0°
